Starlink 35493

operational
NORAD ID: 65928 Int'l Des: 2025-225 Owner: SPXS Country: US Constellation: starlink
LEOCIRCULAR

Über Starlink 35493

Beschreibung wird geladen...

Live-Position

3D-Globus wird geladen...

Nächste Überflüge

Höhenverlauf

Altitude vs Time

uPlot chart will show altitude changes over time

Zweizeiliger Elementsatz

1 65928U 25225U 26061.61857503 -.00002495 00000-0 -72217-4 0 9991
2 65928 53.1586 198.6509 0001479 50.0198 310.0932 15.30166548 23329
Epoch: 2. März 2026 • Age: 33 hours

Aktueller Status

Höhe 485.4 km
Geschwindigkeit 7.62 km/s
Subsatellitenpunkt -29.95°S, 103.81°E
Startdatum 8. Okt. 2025
Alter 0.3 years
Typ internet

Technische Details

Klassifizierung Payload
Masse 575.00 kg
Trockenmasse 530.00 kg
Gesamtmasse 575.00 kg
Länge 0.30 m
Durchmesser 4.10 m
Spannweite 29.00 m
Form Box + pan
Hersteller SPXS
Bus-Typ Starlink V2MO
Phasenstatus In Orbit
Besitzer/Staat SPXS/US

Große Konstellationen

Loading constellations...